2020/08/30 23:31:36+0000,-40.88,-44.08,-27.20,-49.46,-56.16,-55.66
2020/08/30 23:32:28+0000,-40.18,-46.76,-37.18,-50.16,-55.81,-55.82
2020/08/30 23:33:20+0000,-41.39,-44.57,-26.46,-50.17,-55.99,-55.55
2020/08/30 23:34:12+0000,-41.45,-45.77,-37.35,-49.56,-56.67,-55.91
2020/08/30 23:35:04+0000,-41.01,-46.11,-36.71,-50.26,-57.02,-55.80
2020/08/30 23:35:56+0000,-41.23,-44.61,-32.29,-51.03,-56.06,-55.82
2020/08/30 23:36:48+0000,-41.40,-44.88,-26.81,-50.52,-55.82,-56.03
2020/08/30 23:37:40+0000,-41.52,-45.50,-37.69,-49.52,-56.68,-55.66
2020/08/30 23:38:33+0000,-41.15,-44.81,-36.78,-50.20,-56.01,-56.28
2020/08/30 23:39:25+0000,-41.12,-45.79,-26.74,-50.40,-56.08,-55.98
2020/08/30 23:40:17+0000,-41.62,-45.12,-27.21,-49.70,-56.31,-55.56
2020/08/30 23:41:17+0000,-41.70,-44.76,-27.38,-50.24,-56.53,-56.43
2020/08/30 23:42:09+0000,-40.92,-45.07,-38.09,-49.91,-56.04,-55.89
2020/08/30 23:43:01+0000,-40.74,-45.74,-37.56,-49.41,-55.94,-55.80
2020/08/30 23:43:53+0000,-41.54,-44.30,-26.75,-49.39,-55.99,-55.57
2020/08/30 23:44:45+0000,-41.91,-44.93,-37.18,-50.35,-56.29,-56.00
2020/08/30 23:45:37+0000,-41.57,-45.21,-38.16,-49.62,-54.40,-55.60
2020/08/30 23:46:29+0000,-40.90,-45.57,-38.02,-50.43,-55.30,-56.09
2020/08/30 23:47:21+0000,-41.33,-46.36,-27.27,-48.75,-55.92,-55.68
2020/08/30 23:48:13+0000,-40.31,-44.35,-38.49,-49.53,-56.05,-56.07
2020/08/30 23:49:05+0000,-38.54,-44.00,-38.10,-50.17,-56.60,-55.89
2020/08/30 23:49:58+0000,-38.76,-44.16,-38.58,-48.74,-56.35,-55.86
2020/08/30 23:50:50+0000,-38.44,-46.10,-26.75,-49.61,-56.11,-55.77
2020/08/30 23:51:49+0000,-38.71,-44.90,-26.89,-50.12,-56.08,-55.81
2020/08/30 23:52:41+0000,-39.60,-44.82,-39.07,-49.24,-55.81,-56.19
2020/08/30 23:53:33+0000,-39.27,-45.61,-39.19,-50.21,-55.98,-56.18
2020/08/30 23:54:25+0000,-39.30,-44.41,-27.06,-50.08,-55.96,-56.53
2020/08/30 23:55:17+0000,-39.47,-45.85,-27.20,-50.41,-55.97,-55.35
2020/08/30 23:56:10+0000,-39.79,-44.88,-38.77,-50.14,-55.55,-56.69
2020/08/30 23:57:02+0000,-39.12,-45.01,-39.71,-49.85,-55.61,-55.96
2020/08/30 23:57:54+0000,-38.65,-43.69,-26.35,-50.22,-56.22,-56.14
2020/08/30 23:58:46+0000,-38.17,-45.59,-39.10,-50.48,-55.48,-56.44
2020/08/30 23:59:38+0000,-39.68,-44.65,-27.14,-50.03,-56.13,-56.12
2020/08/31 00:00:30+0000,-38.95,-44.93,-26.62,-50.18,-55.97,-55.61
2020/08/31 00:01:35+0000,-38.37,-45.50,-26.91,-50.41,-56.33,-55.67
2020/08/31 00:02:27+0000,-38.78,-46.17,-39.45,-49.66,-56.45,-55.91
2020/08/31 00:03:19+0000,-39.06,-45.79,-38.96,-50.05,-56.57,-56.01
2020/08/31 00:04:11+0000,-39.02,-42.29,-26.59,-50.17,-56.78,-55.63
2020/08/31 00:05:03+0000,-38.45,-43.52,-26.67,-50.43,-55.66,-55.41
2020/08/31 00:05:55+0000,-39.91,-43.94,-38.77,-49.74,-56.37,-55.43
2020/08/31 00:06:47+0000,-39.74,-44.46,-39.52,-50.32,-55.55,-56.30
2020/08/31 00:07:39+0000,-39.12,-43.40,-26.48,-50.23,-55.62,-55.85
2020/08/31 00:08:31+0000,-38.21,-43.49,-26.54,-50.32,-54.93,-55.55
2020/08/31 00:09:23+0000,-39.08,-43.55,-39.27,-48.40,-55.09,-55.79
2020/08/31 00:10:16+0000,-38.77,-44.93,-39.54,-50.45,-55.50,-55.39
2020/08/31 00:11:13+0000,-38.42,-43.84,-39.19,-50.62,-55.34,-56.16
2020/08/31 00:12:05+0000,-37.87,-43.59,-26.86,-49.85,-55.57,-55.69
2020/08/31 00:12:57+0000,-37.35,-44.57,-38.22,-49.69,-55.77,-55.80
2020/08/31 00:13:49+0000,-38.31,-43.88,-37.60,-49.94,-55.72,-55.55
2020/08/31 00:14:41+0000,-38.67,-42.55,-39.05,-49.73,-55.28,-55.58
2020/08/31 00:15:33+0000,-37.80,-43.94,-26.60,-50.86,-54.89,-55.16
2020/08/31 00:16:26+0000,-39.10,-43.56,-37.98,-49.71,-54.59,-55.39
2020/08/31 00:17:18+0000,-39.37,-43.10,-38.72,-50.60,-55.77,-55.27
2020/08/31 00:18:10+0000,-38.30,-44.06,-27.09,-50.13,-56.09,-55.53
2020/08/31 00:19:02+0000,-39.38,-42.62,-27.31,-49.85,-55.63,-55.64
2020/08/31 00:19:54+0000,-39.76,-43.55,-38.60,-49.91,-55.94,-55.73
2020/08/31 00:20:46+0000,-38.82,-43.63,-38.90,-49.86,-55.52,-55.23
2020/08/31 00:21:51+0000,-39.92,-43.38,-37.02,-50.42,-55.87,-55.47
2020/08/31 00:22:43+0000,-40.01,-42.51,-37.95,-49.71,-56.07,-55.69
2020/08/31 00:23:35+0000,-39.64,-43.59,-36.15,-49.87,-55.46,-55.74
2020/08/31 00:24:27+0000,-39.37,-44.34,-36.00,-50.34,-56.11,-55.52
2020/08/31 00:25:19+0000,-38.96,-45.48,-35.93,-50.19,-56.26,-55.86
2020/08/31 00:26:11+0000,-39.63,-43.96,-36.04,-50.38,-56.67,-55.56
2020/08/31 00:27:03+0000,-39.40,-44.43,-37.23,-50.60,-56.88,-55.40
2020/08/31 00:27:55+0000,-39.94,-44.21,-37.76,-50.07,-56.48,-55.60
2020/08/31 00:28:47+0000,-40.35,-48.72,-38.36,-49.89,-56.33,-55.79
2020/08/31 00:29:40+0000,-39.10,-47.13,-38.47,-50.34,-56.52,-55.96
2020/08/31 00:30:32+0000,-39.46,-48.89,-36.99,-50.77,-55.92,-55.55
2020/08/31 00:31:31+0000,-39.78,-48.50,-35.39,-50.76,-56.24,-55.88
2020/08/31 00:32:23+0000,-38.94,-48.94,-35.94,-50.65,-56.65,-55.88
2020/08/31 00:33:15+0000,-39.29,-48.55,-37.99,-49.41,-56.53,-55.75
2020/08/31 00:34:07+0000,-38.97,-49.23,-37.95,-49.80,-56.84,-55.19
2020/08/31 00:34:59+0000,-39.08,-48.39,-38.26,-50.76,-55.74,-55.88
2020/08/31 00:35:51+0000,-37.80,-48.46,-38.47,-49.72,-56.33,-55.68
2020/08/31 00:36:43+0000,-37.74,-48.13,-38.55,-49.75,-56.39,-55.75
2020/08/31 00:37:35+0000,-39.09,-49.99,-37.68,-49.95,-56.33,-56.27
2020/08/31 00:38:27+0000,-38.95,-48.06,-35.97,-50.26,-55.58,-56.16
2020/08/31 00:39:19+0000,-39.07,-48.20,-35.04,-49.98,-56.50,-55.42
2020/08/31 00:40:12+0000,-40.03,-47.37,-36.84,-49.90,-56.31,-55.63
2020/08/31 00:41:17+0000,-39.90,-47.58,-35.29,-49.42,-56.34,-56.20
2020/08/31 00:42:09+0000,-39.26,-48.54,-36.30,-49.76,-56.42,-55.84
2020/08/31 00:43:01+0000,-39.59,-47.64,-37.92,-50.90,-56.79,-55.16
2020/08/31 00:43:53+0000,-40.06,-48.41,-37.64,-50.36,-55.83,-55.54
2020/08/31 00:44:45+0000,-39.94,-48.57,-37.72,-50.09,-56.80,-55.59
2020/08/31 00:45:37+0000,-38.82,-49.16,-34.56,-49.53,-56.25,-55.40
2020/08/31 00:46:29+0000,-39.30,-48.46,-36.08,-50.69,-56.49,-53.60
2020/08/31 00:47:21+0000,-39.71,-48.97,-38.63,-50.26,-56.43,-55.71
2020/08/31 00:48:13+0000,-38.84,-47.79,-37.63,-50.03,-56.58,-55.84
2020/08/31 00:49:05+0000,-39.54,-47.05,-37.40,-50.72,-56.02,-56.21
2020/08/31 00:49:58+0000,-40.06,-48.35,-36.65,-50.08,-56.23,-56.10
2020/08/31 00:50:50+0000,-39.13,-47.24,-37.87,-50.63,-56.49,-56.05
2020/08/31 00:51:52+0000,-39.14,-49.08,-37.30,-50.02,-56.35,-55.57
2020/08/31 00:52:44+0000,-40.37,-47.04,-36.69,-50.15,-56.05,-55.75
2020/08/31 00:53:36+0000,-39.94,-49.35,-36.81,-49.31,-56.14,-55.36
2020/08/31 00:54:28+0000,-39.29,-48.99,-37.06,-49.74,-56.14,-56.19
2020/08/31 00:55:20+0000,-39.04,-47.40,-36.84,-50.64,-55.18,-55.70
2020/08/31 00:56:12+0000,-40.16,-48.79,-37.34,-51.44,-57.08,-55.80
2020/08/31 00:57:04+0000,-39.89,-48.09,-34.67,-52.05,-56.43,-55.96
2020/08/31 00:57:56+0000,-39.53,-48.43,-35.87,-49.87,-56.58,-56.44
2020/08/31 00:58:49+0000,-40.51,-47.07,-34.75,-51.32,-56.22,-56.53
2020/08/31 00:59:41+0000,-40.02,-48.66,-36.01,-50.72,-55.94,-55.92
2020/08/31 01:00:33+0000,-40.08,-48.41,-35.65,-50.57,-55.25,-55.74
2020/08/31 01:01:33+0000,-39.91,-49.32,-35.83,-50.46,-55.08,-56.11
2020/08/31 01:02:25+0000,-39.61,-47.92,-35.93,-49.85,-55.48,-55.52
2020/08/31 01:03:17+0000,-38.90,-46.85,-35.28,-50.75,-55.78,-56.49
2020/08/31 01:04:09+0000,-39.08,-47.90,-35.28,-50.97,-55.71,-55.28
2020/08/31 01:05:01+0000,-39.20,-48.11,-35.65,-51.10,-55.69,-56.08
2020/08/31 01:05:53+0000,-39.40,-47.58,-35.77,-51.19,-55.70,-55.69
2020/08/31 01:06:45+0000,-39.55,-47.86,-35.32,-51.53,-56.23,-55.94
2020/08/31 01:07:37+0000,-39.56,-47.84,-35.68,-51.24,-55.77,-55.72
2020/08/31 01:08:29+0000,-40.01,-47.79,-35.96,-49.55,-56.30,-55.83
2020/08/31 01:09:21+0000,-40.13,-48.68,-34.90,-50.61,-56.00,-55.89
2020/08/31 01:10:14+0000,-39.04,-47.23,-35.19,-51.45,-56.00,-56.03
2020/08/31 01:11:13+0000,-38.64,-47.61,-35.62,-51.44,-55.50,-56.05
2020/08/31 01:12:05+0000,-38.98,-49.24,-36.46,-50.81,-56.47,-55.53
2020/08/31 01:12:58+0000,-38.30,-47.91,-35.90,-50.39,-56.26,-55.96
2020/08/31 01:13:50+0000,-38.91,-48.95,-35.08,-49.73,-55.58,-55.71
2020/08/31 01:14:42+0000,-39.51,-47.03,-36.06,-50.38,-56.29,-56.12
2020/08/31 01:15:34+0000,-37.08,-48.16,-34.97,-51.11,-55.77,-56.18
2020/08/31 01:16:26+0000,-39.81,-47.88,-36.19,-49.78,-54.70,-55.80
2020/08/31 01:17:18+0000,-38.71,-47.47,-35.04,-50.29,-54.96,-55.76
2020/08/31 01:18:10+0000,-39.23,-47.58,-35.14,-50.45,-55.50,-56.29
2020/08/31 01:19:02+0000,-39.10,-46.32,-35.04,-50.13,-55.22,-55.93
2020/08/31 01:19:54+0000,-38.98,-46.41,-34.54,-49.97,-54.96,-55.36
2020/08/31 01:20:47+0000,-39.41,-48.07,-34.65,-50.56,-54.95,-55.78
2020/08/31 01:21:46+0000,-37.95,-47.68,-34.85,-49.86,-55.64,-56.23
2020/08/31 01:22:38+0000,-37.94,-48.00,-35.08,-50.33,-55.28,-56.07
2020/08/31 01:23:30+0000,-38.64,-45.69,-35.33,-49.90,-55.39,-56.20
2020/08/31 01:24:22+0000,-38.76,-47.57,-35.24,-50.09,-55.32,-56.31
2020/08/31 01:25:14+0000,-38.39,-46.78,-35.03,-51.03,-55.25,-55.75
2020/08/31 01:26:06+0000,-39.31,-48.40,-35.92,-50.42,-55.41,-55.36
2020/08/31 01:26:58+0000,-37.94,-45.82,-36.32,-50.53,-55.11,-55.61
2020/08/31 01:27:50+0000,-38.62,-48.76,-35.05,-51.59,-55.66,-55.01
2020/08/31 01:28:42+0000,-39.08,-47.44,-35.86,-49.41,-55.46,-56.29
2020/08/31 01:29:35+0000,-39.26,-46.72,-35.59,-50.52,-55.58,-55.88
2020/08/31 01:30:27+0000,-35.10,-46.08,-35.11,-50.27,-55.42,-55.75
2020/08/31 01:31:29+0000,-37.57,-46.88,-35.25,-50.72,-55.38,-55.43
2020/08/31 01:32:21+0000,-35.34,-48.81,-35.42,-50.98,-55.16,-56.22
2020/08/31 01:33:13+0000,-39.54,-45.42,-35.16,-49.73,-55.68,-55.51
2020/08/31 01:34:05+0000,-39.30,-48.51,-35.20,-51.14,-55.32,-54.95
2020/08/31 01:34:57+0000,-39.29,-46.88,-34.89,-49.91,-55.59,-55.61
2020/08/31 01:35:49+0000,-38.27,-45.59,-35.66,-50.71,-54.81,-55.72
2020/08/31 01:36:41+0000,-38.11,-46.73,-35.23,-48.53,-55.53,-55.50
2020/08/31 01:37:33+0000,-38.78,-47.04,-35.54,-51.07,-55.58,-55.74
2020/08/31 01:38:25+0000,-38.90,-46.16,-35.43,-50.66,-56.10,-55.62
2020/08/31 01:39:18+0000,-39.80,-46.23,-35.66,-49.38,-55.61,-55.64
2020/08/31 01:40:10+0000,-38.76,-47.24,-34.89,-49.58,-55.37,-56.33
2020/08/31 01:41:10+0000,-39.42,-45.99,-34.57,-49.56,-55.31,-55.61
2020/08/31 01:42:02+0000,-38.42,-47.07,-35.49,-50.51,-55.86,-55.07
2020/08/31 01:42:54+0000,-38.67,-46.67,-34.53,-50.30,-55.44,-55.15
2020/08/31 01:43:46+0000,-38.87,-46.54,-35.09,-49.28,-55.56,-55.49
2020/08/31 01:44:38+0000,-38.99,-47.22,-34.46,-49.33,-55.19,-56.29
2020/08/31 01:45:30+0000,-38.53,-45.71,-34.75,-50.67,-55.64,-55.52
2020/08/31 01:46:22+0000,-38.86,-48.87,-35.04,-50.51,-55.22,-55.48
2020/08/31 01:47:14+0000,-39.32,-44.31,-35.27,-49.85,-55.56,-55.20
2020/08/31 01:48:06+0000,-39.18,-49.00,-35.42,-49.01,-55.37,-55.58
2020/08/31 01:48:58+0000,-37.96,-47.12,-36.04,-49.88,-55.60,-55.53
2020/08/31 01:49:51+0000,-39.11,-46.54,-35.36,-51.07,-55.21,-55.60
2020/08/31 01:50:43+0000,-38.28,-46.80,-35.51,-50.51,-55.13,-55.25
2020/08/31 01:51:47+0000,-38.24,-46.32,-35.64,-50.52,-55.35,-56.22
2020/08/31 01:52:39+0000,-38.70,-46.23,-34.99,-49.95,-54.99,-55.59
2020/08/31 01:53:31+0000,-38.77,-46.60,-35.00,-50.16,-54.93,-55.72
2020/08/31 01:54:23+0000,-39.01,-46.97,-34.91,-51.56,-54.61,-55.07
2020/08/31 01:55:15+0000,-39.15,-46.20,-35.15,-51.08,-55.43,-55.79
2020/08/31 01:56:07+0000,-38.44,-48.83,-35.26,-49.85,-55.44,-55.60
2020/08/31 01:56:59+0000,-40.40,-46.13,-35.44,-51.14,-54.95,-54.84
2020/08/31 01:57:52+0000,-40.07,-48.53,-36.22,-49.60,-55.20,-54.77
2020/08/31 01:58:44+0000,-37.69,-46.31,-36.06,-50.51,-55.69,-55.77
2020/08/31 01:59:36+0000,-38.37,-49.20,-35.48,-50.17,-55.25,-56.23
2020/08/31 02:00:28+0000,-37.81,-47.00,-35.72,-50.24,-54.56,-55.71
2020/08/31 02:01:37+0000,-38.60,-48.52,-35.60,-50.09,-55.25,-55.25
2020/08/31 02:02:29+0000,-38.46,-47.64,-35.09,-51.37,-55.16,-55.58
2020/08/31 02:03:21+0000,-38.29,-49.57,-35.49,-50.51,-55.63,-55.15
2020/08/31 02:04:13+0000,-39.43,-47.17,-36.05,-50.36,-54.69,-55.84
2020/08/31 02:05:05+0000,-39.26,-49.29,-35.82,-50.07,-54.12,-55.79
2020/08/31 02:05:57+0000,-39.25,-48.12,-34.58,-50.63,-55.52,-55.51
2020/08/31 02:06:49+0000,-38.65,-44.35,-34.27,-51.66,-54.90,-56.12
2020/08/31 02:07:41+0000,-40.09,-46.57,-35.49,-50.98,-54.47,-55.58
2020/08/31 02:08:33+0000,-40.05,-46.45,-35.30,-51.62,-54.90,-55.39
2020/08/31 02:09:25+0000,-40.28,-46.46,-35.38,-51.30,-55.81,-55.56
2020/08/31 02:10:18+0000,-39.42,-47.15,-35.45,-51.22,-55.01,-55.29
2020/08/31 02:11:24+0000,-38.84,-47.53,-35.31,-51.40,-55.28,-55.06
2020/08/31 02:12:16+0000,-39.41,-46.16,-34.82,-51.22,-55.79,-55.51
2020/08/31 02:13:08+0000,-37.76,-46.69,-34.86,-51.28,-56.26,-55.70
2020/08/31 02:14:00+0000,-37.58,-45.60,-35.21,-51.34,-56.06,-55.30
2020/08/31 02:14:52+0000,-37.69,-47.12,-34.93,-51.31,-55.17,-55.56
2020/08/31 02:15:44+0000,-39.63,-46.28,-35.39,-51.14,-54.90,-55.54
2020/08/31 02:16:36+0000,-38.59,-49.75,-34.95,-51.78,-55.31,-56.06
2020/08/31 02:17:28+0000,-38.75,-46.76,-35.10,-51.81,-54.56,-56.04
2020/08/31 02:18:20+0000,-39.22,-49.62,-35.59,-51.61,-55.22,-55.43
2020/08/31 02:19:12+0000,-41.13,-46.65,-35.25,-51.07,-54.95,-55.98
2020/08/31 02:20:05+0000,-40.37,-49.93,-35.16,-50.64,-55.23,-56.20
2020/08/31 02:21:02+0000,-38.69,-48.03,-35.46,-52.63,-54.29,-55.15
2020/08/31 02:21:54+0000,-39.43,-46.25,-35.11,-51.72,-55.12,-56.20
2020/08/31 02:22:46+0000,-38.66,-47.04,-35.13,-51.50,-54.64,-55.21
2020/08/31 02:23:39+0000,-38.95,-46.64,-34.56,-52.09,-55.23,-56.18
2020/08/31 02:24:31+0000,-38.71,-46.07,-35.27,-51.90,-55.51,-55.70
2020/08/31 02:25:23+0000,-39.11,-45.66,-35.26,-51.62,-54.79,-55.36
2020/08/31 02:26:15+0000,-39.74,-46.56,-35.29,-51.05,-55.49,-55.52
2020/08/31 02:27:07+0000,-39.91,-48.98,-35.27,-51.84,-54.83,-55.52
2020/08/31 02:27:59+0000,-39.77,-46.86,-34.87,-50.52,-54.72,-55.84
2020/08/31 02:28:51+0000,-40.20,-48.91,-34.64,-51.53,-55.49,-55.69
2020/08/31 02:29:43+0000,-39.43,-46.89,-35.45,-50.69,-55.21,-55.70
2020/08/31 02:30:35+0000,-39.51,-48.11,-34.84,-51.03,-55.34,-55.47
2020/08/31 02:31:40+0000,-39.44,-47.11,-34.92,-50.83,-55.21,-55.94
2020/08/31 02:32:32+0000,-39.61,-47.46,-35.32,-50.83,-55.35,-55.49
2020/08/31 02:33:24+0000,-39.22,-46.66,-34.90,-51.57,-55.70,-55.34
2020/08/31 02:34:16+0000,-40.42,-47.02,-34.90,-51.19,-55.66,-55.67
2020/08/31 02:35:08+0000,-41.66,-46.91,-35.00,-51.50,-55.79,-55.80
2020/08/31 02:36:00+0000,-39.67,-47.04,-34.63,-51.45,-55.36,-55.68
2020/08/31 02:36:52+0000,-40.01,-48.03,-34.84,-52.04,-55.84,-56.14
2020/08/31 02:37:44+0000,-40.58,-45.32,-34.90,-51.63,-55.30,-55.35
2020/08/31 02:38:36+0000,-39.21,-49.28,-34.82,-51.57,-55.49,-55.63
2020/08/31 02:39:28+0000,-41.06,-45.69,-35.19,-51.36,-55.66,-55.95
2020/08/31 02:40:21+0000,-38.62,-42.55,-34.92,-50.46,-55.38,-54.76
2020/08/31 02:41:21+0000,-38.07,-43.41,-35.09,-51.27,-55.81,-55.40
2020/08/31 02:42:13+0000,-39.80,-42.54,-35.69,-50.86,-55.12,-55.38
2020/08/31 02:43:05+0000,-38.74,-45.41,-34.91,-50.60,-55.00,-55.64
2020/08/31 02:43:57+0000,-37.86,-41.03,-35.54,-50.94,-55.54,-55.46
2020/08/31 02:44:49+0000,-38.90,-40.93,-35.40,-50.97,-55.65,-55.37
2020/08/31 02:45:41+0000,-40.18,-42.09,-35.10,-50.29,-55.92,-55.41
2020/08/31 02:46:33+0000,-38.99,-40.96,-35.74,-50.99,-55.23,-55.63
2020/08/31 02:47:25+0000,-39.07,-41.67,-35.33,-51.21,-54.68,-55.29
2020/08/31 02:48:18+0000,-38.96,-42.28,-35.20,-51.31,-54.71,-55.70
2020/08/31 02:49:10+0000,-40.22,-42.45,-35.92,-50.88,-55.88,-55.42
2020/08/31 02:50:02+0000,-40.22,-41.76,-36.55,-50.47,-54.79,-55.38
2020/08/31 02:51:06+0000,-40.13,-43.08,-35.97,-51.06,-55.18,-55.59
2020/08/31 02:51:58+0000,-37.53,-40.89,-36.03,-51.45,-56.10,-55.03
2020/08/31 02:52:50+0000,-37.51,-43.80,-36.36,-50.93,-55.46,-55.60
2020/08/31 02:53:42+0000,-39.25,-41.89,-35.77,-50.64,-55.05,-55.29
2020/08/31 02:54:34+0000,-37.79,-43.00,-35.09,-50.73,-55.15,-55.36
2020/08/31 02:55:26+0000,-37.57,-41.98,-36.77,-50.83,-55.18,-54.79
2020/08/31 02:56:18+0000,-33.84,-41.95,-36.25,-50.80,-55.14,-55.55
2020/08/31 02:57:10+0000,-37.58,-41.33,-35.89,-50.49,-55.53,-54.71
2020/08/31 02:58:03+0000,-36.37,-41.83,-36.17,-50.17,-55.42,-55.19
2020/08/31 02:58:55+0000,-36.91,-40.00,-36.14,-51.12,-54.55,-55.26
2020/08/31 02:59:47+0000,-36.83,-42.57,-36.04,-51.19,-54.92,-56.25
2020/08/31 03:00:39+0000,-38.58,-41.32,-36.01,-51.20,-54.82,-55.32
2020/08/31 03:01:38+0000,-36.96,-40.82,-35.90,-51.51,-54.30,-56.01
2020/08/31 03:02:30+0000,-38.14,-42.70,-35.72,-50.29,-54.01,-55.31
2020/08/31 03:03:22+0000,-37.28,-43.17,-36.41,-50.31,-53.11,-55.63
2020/08/31 03:04:14+0000,-36.35,-43.33,-36.20,-51.54,-53.82,-56.06
2020/08/31 03:05:06+0000,-38.66,-42.90,-35.76,-51.71,-53.62,-56.01
2020/08/31 03:05:58+0000,-38.37,-41.83,-36.56,-50.41,-54.59,-55.80
2020/08/31 03:06:50+0000,-37.22,-42.55,-36.02,-50.17,-54.47,-55.26
2020/08/31 03:07:42+0000,-37.39,-43.54,-36.30,-50.60,-55.63,-55.06
2020/08/31 03:08:35+0000,-38.55,-42.97,-35.89,-50.53,-55.20,-55.28
2020/08/31 03:09:27+0000,-38.45,-42.39,-35.92,-50.60,-55.72,-55.90
2020/08/31 03:10:19+0000,-38.26,-41.20,-35.75,-50.58,-55.77,-54.62
2020/08/31 03:11:20+0000,-38.01,-43.77,-35.85,-51.44,-55.78,-55.57
2020/08/31 03:12:12+0000,-38.12,-41.89,-36.10,-50.42,-55.52,-56.15
2020/08/31 03:13:04+0000,-39.70,-42.47,-35.68,-50.35,-55.44,-55.55
2020/08/31 03:13:56+0000,-36.90,-43.36,-35.79,-49.92,-55.37,-55.39
2020/08/31 03:14:48+0000,-36.98,-41.68,-35.16,-50.58,-55.61,-54.85
2020/08/31 03:15:40+0000,-38.05,-42.48,-35.62,-50.39,-55.57,-55.13
2020/08/31 03:16:32+0000,-37.37,-41.00,-36.97,-50.73,-54.94,-54.94
2020/08/31 03:17:24+0000,-36.00,-42.48,-36.13,-51.08,-55.32,-55.15
2020/08/31 03:18:16+0000,-36.07,-43.49,-37.06,-50.81,-54.72,-56.15
2020/08/31 03:19:09+0000,-39.41,-43.44,-36.71,-50.80,-54.63,-55.60
2020/08/31 03:20:01+0000,-39.53,-41.35,-35.92,-50.06,-55.78,-55.53
2020/08/31 03:21:01+0000,-36.04,-42.72,-35.73,-50.69,-55.06,-55.43
2020/08/31 03:21:53+0000,-37.06,-43.13,-35.34,-50.57,-55.48,-55.02
2020/08/31 03:22:45+0000,-39.77,-39.62,-36.14,-50.65,-54.94,-55.67
2020/08/31 03:23:37+0000,-37.27,-41.42,-36.46,-50.41,-55.29,-54.90
2020/08/31 03:24:29+0000,-39.44,-41.68,-35.90,-51.48,-55.37,-55.41
2020/08/31 03:25:22+0000,-38.09,-43.69,-35.42,-50.96,-56.06,-55.45
2020/08/31 03:26:14+0000,-39.19,-43.38,-35.51,-50.50,-55.78,-55.59
2020/08/31 03:27:06+0000,-36.99,-43.78,-35.68,-50.18,-55.30,-55.68
2020/08/31 03:27:58+0000,-36.54,-40.14,-35.27,-50.35,-54.58,-56.18
2020/08/31 03:28:50+0000,-37.99,-42.78,-35.94,-50.78,-54.46,-55.80
2020/08/31 03:29:42+0000,-37.81,-41.71,-35.71,-50.58,-54.99,-55.51
2020/08/31 03:30:34+0000,-38.56,-42.64,-35.93,-50.87,-55.28,-55.72
2020/08/31 03:31:32+0000,-39.84,-40.81,-36.45,-51.61,-55.62,-55.79
2020/08/31 03:32:24+0000,-37.25,-41.48,-35.89,-51.32,-55.57,-55.48
2020/08/31 03:33:16+0000,-36.24,-42.11,-36.46,-50.44,-55.86,-55.55
2020/08/31 03:34:08+0000,-37.98,-41.55,-36.31,-51.05,-55.32,-55.03
2020/08/31 03:35:00+0000,-36.76,-40.21,-36.16,-51.21,-55.60,-54.57
2020/08/31 03:35:52+0000,-35.55,-43.15,-36.83,-50.98,-55.37,-55.15
2020/08/31 03:36:44+0000,-38.55,-41.84,-35.80,-50.09,-55.60,-55.26
2020/08/31 03:37:37+0000,-38.02,-44.12,-35.80,-50.51,-55.19,-55.90
2020/08/31 03:38:29+0000,-34.10,-40.39,-36.26,-50.78,-54.86,-55.59
2020/08/31 03:39:21+0000,-35.26,-43.94,-36.25,-50.74,-55.46,-55.78
2020/08/31 03:40:13+0000,-37.12,-41.97,-36.11,-50.61,-56.18,-55.33
2020/08/31 03:41:12+0000,-35.98,-41.72,-35.90,-50.17,-54.66,-55.04
2020/08/31 03:42:04+0000,-36.49,-41.71,-35.51,-50.72,-54.23,-55.13
2020/08/31 03:42:56+0000,-37.67,-41.05,-34.79,-50.68,-54.92,-55.33
2020/08/31 03:43:48+0000,-36.81,-43.11,-34.95,-49.89,-54.56,-55.64
2020/08/31 03:44:40+0000,-37.98,-42.44,-35.43,-50.28,-55.01,-55.26
2020/08/31 03:45:33+0000,-37.88,-43.32,-35.28,-49.80,-55.02,-55.28
2020/08/31 03:46:25+0000,-35.62,-42.14,-35.34,-50.68,-54.64,-55.61
2020/08/31 03:47:17+0000,-37.55,-42.77,-34.59,-50.04,-54.64,-55.54
2020/08/31 03:48:09+0000,-37.94,-42.88,-35.64,-50.15,-55.09,-55.87
2020/08/31 03:49:01+0000,-38.86,-43.47,-35.07,-50.27,-55.45,-55.35
2020/08/31 03:49:53+0000,-37.43,-42.67,-35.06,-51.07,-55.14,-55.41
2020/08/31 03:50:45+0000,-37.95,-40.43,-35.11,-49.07,-55.00,-55.66
2020/08/31 03:51:43+0000,-38.56,-40.63,-35.39,-49.60,-54.52,-55.56
2020/08/31 03:52:35+0000,-37.62,-41.30,-35.35,-49.55,-54.81,-55.58
2020/08/31 03:53:27+0000,-37.68,-41.90,-34.94,-49.98,-55.34,-55.48
2020/08/31 03:54:19+0000,-37.63,-42.53,-35.16,-49.23,-55.51,-55.62
2020/08/31 03:55:11+0000,-38.64,-42.48,-35.31,-49.97,-55.48,-55.52
2020/08/31 03:56:03+0000,-39.09,-43.19,-35.64,-49.78,-55.57,-55.76
2020/08/31 03:56:55+0000,-39.01,-42.07,-34.86,-49.49,-55.35,-55.73
2020/08/31 03:57:47+0000,-36.54,-41.27,-34.41,-49.16,-55.56,-55.40
2020/08/31 03:58:40+0000,-39.39,-41.52,-35.32,-49.69,-55.96,-55.26
2020/08/31 03:59:32+0000,-39.79,-42.47,-35.48,-50.30,-55.70,-55.28
2020/08/31 04:00:24+0000,-35.61,-43.78,-35.16,-49.57,-56.03,-55.69
2020/08/31 04:01:25+0000,-36.74,-43.72,-35.41,-50.27,-55.45,-55.63
2020/08/31 04:02:17+0000,-35.86,-40.95,-35.49,-50.24,-54.21,-55.06
2020/08/31 04:03:09+0000,-37.88,-39.71,-35.58,-49.99,-54.35,-55.40
2020/08/31 04:04:01+0000,-37.21,-42.92,-35.38,-49.45,-54.69,-55.94
2020/08/31 04:04:53+0000,-36.44,-41.46,-35.59,-50.44,-54.92,-54.97
2020/08/31 04:05:45+0000,-39.54,-40.24,-36.07,-50.09,-55.04,-55.36
2020/08/31 04:06:37+0000,-36.79,-41.20,-36.25,-49.74,-55.35,-54.95
2020/08/31 04:07:29+0000,-37.93,-42.84,-35.15,-50.54,-54.60,-54.83
2020/08/31 04:08:21+0000,-37.04,-44.03,-35.75,-51.05,-54.47,-55.66
2020/08/31 04:09:14+0000,-38.05,-43.53,-35.81,-50.61,-53.98,-55.29
2020/08/31 04:10:06+0000,-37.98,-44.12,-35.25,-50.56,-54.01,-55.65
2020/08/31 04:11:05+0000,-35.56,-43.81,-35.63,-50.84,-53.90,-55.68
2020/08/31 04:11:57+0000,-38.92,-41.30,-35.38,-50.17,-53.91,-55.51
2020/08/31 04:12:49+0000,-37.10,-43.65,-35.31,-50.96,-53.53,-55.94
2020/08/31 04:13:41+0000,-37.79,-42.61,-35.68,-49.88,-55.13,-56.09
2020/08/31 04:14:33+0000,-37.54,-40.21,-35.13,-50.43,-54.75,-55.24
2020/08/31 04:15:25+0000,-36.77,-41.42,-35.03,-50.62,-54.97,-55.95
2020/08/31 04:16:18+0000,-37.48,-41.32,-36.29,-50.60,-54.41,-56.03
2020/08/31 04:17:10+0000,-38.77,-43.01,-35.35,-50.40,-55.27,-55.55
2020/08/31 04:18:02+0000,-39.17,-45.46,-35.50,-51.08,-55.03,-55.60
2020/08/31 04:18:54+0000,-36.29,-46.73,-35.80,-50.73,-54.92,-55.50
2020/08/31 04:19:46+0000,-37.72,-46.15,-35.46,-50.60,-54.20,-55.58
2020/08/31 04:20:38+0000,-35.89,-46.57,-36.11,-49.40,-54.17,-55.36
2020/08/31 04:21:37+0000,-37.31,-48.71,-36.64,-50.28,-54.11,-55.65
2020/08/31 04:22:29+0000,-39.27,-45.96,-35.77,-50.32,-55.44,-55.19
2020/08/31 04:23:21+0000,-35.57,-49.29,-36.69,-49.85,-54.17,-55.72
2020/08/31 04:24:13+0000,-37.23,-43.70,-36.48,-49.54,-54.31,-55.76
2020/08/31 04:25:05+0000,-37.77,-49.11,-35.80,-49.87,-54.85,-55.85
2020/08/31 04:25:57+0000,-34.77,-45.55,-36.41,-50.78,-55.75,-55.84
2020/08/31 04:26:50+0000,-34.84,-46.09,-36.22,-50.53,-55.17,-55.24
2020/08/31 04:27:42+0000,-37.02,-45.55,-36.03,-50.67,-55.16,-55.03
2020/08/31 04:28:34+0000,-37.84,-45.28,-35.52,-50.84,-55.58,-55.86
2020/08/31 04:29:26+0000,-38.42,-46.96,-35.88,-50.84,-55.23,-55.52
2020/08/31 04:30:18+0000,-36.74,-46.55,-35.54,-50.96,-55.49,-55.39
2020/08/31 04:31:19+0000,-34.44,-46.29,-35.45,-51.26,-54.28,-55.98
2020/08/31 04:32:11+0000,-39.05,-46.51,-35.78,-50.87,-53.46,-55.74
2020/08/31 04:33:03+0000,-37.71,-46.09,-35.10,-50.53,-54.22,-55.47
2020/08/31 04:33:55+0000,-36.96,-45.80,-35.59,-51.42,-53.02,-55.86
2020/08/31 04:34:47+0000,-37.79,-46.95,-36.23,-50.29,-53.91,-56.13
2020/08/31 04:35:39+0000,-37.43,-46.89,-35.61,-51.07,-53.81,-55.84
2020/08/31 04:36:31+0000,-39.70,-46.36,-35.40,-50.73,-54.85,-56.71
2020/08/31 04:37:23+0000,-37.21,-45.93,-35.15,-50.03,-53.56,-55.51
2020/08/31 04:38:15+0000,-37.02,-47.40,-35.39,-50.34,-54.25,-55.73
2020/08/31 04:39:07+0000,-38.88,-49.56,-35.50,-50.28,-53.41,-55.68
2020/08/31 04:39:59+0000,-37.55,-46.04,-35.62,-49.96,-53.58,-55.30
2020/08/31 04:40:51+0000,-38.60,-49.41,-35.76,-50.64,-53.52,-54.88
2020/08/31 04:41:51+0000,-36.45,-49.77,-35.93,-50.12,-54.07,-55.65
2020/08/31 04:42:43+0000,-38.00,-46.13,-35.47,-50.36,-55.22,-55.30
2020/08/31 04:43:35+0000,-37.85,-45.07,-35.26,-50.98,-54.97,-55.59
2020/08/31 04:44:27+0000,-37.56,-45.36,-35.87,-50.62,-55.94,-55.75
2020/08/31 04:45:19+0000,-37.68,-46.62,-36.18,-50.66,-55.13,-55.74
2020/08/31 04:46:11+0000,-36.54,-45.99,-36.31,-50.27,-55.16,-54.61